GW4487 Weather Reports


Display with metric or nautical units.
time (UTC)temp
F
wind
direction
speed
MPH
gust
MPH
rain 1hr
in
rain 24hr
in
rain mn
in
humidity
%
barometer
mb
20260503192438 64 205 1.0 1.0 0.00 0.00 0.00 66 1012.3
20260503191933 64 167 0.0 1.0 0.00 0.00 0.00 66 1012.3
20260503191431 63 185 0.0 3.0 0.00 0.00 0.00 67 1012.6
20260503190927 64 168 2.0 2.0 0.00 0.00 0.00 66 1012.6
20260503190425 64 276 3.0 3.0 0.00 0.00 0.00 66 1012.6
20260503185922 63 200 2.0 2.0 0.00 0.00 0.00 67 1012.6
20260503185418 63 215 1.0 1.0 0.00 0.00 0.00 68 1012.6
20260503184917 62 219 2.0 3.0 0.00 0.00 0.00 69 1012.6
20260503184414 62 193 3.0 5.0 0.00 0.00 0.00 70 1013.0
20260503183910 62 260 4.0 6.0 0.00 0.00 0.00 69 1013.0
20260503183407 62 204 2.0 5.0 0.00 0.00 0.00 70 1012.6
20260503182904 63 218 2.0 5.0 0.00 0.00 0.00 69 1012.6
20260503182403 63 219 4.0 5.0 0.00 0.00 0.00 69 1012.6
20260503181900 63 231 2.0 5.0 0.00 0.00 0.00 69 1013.0
20260503181357 63 199 3.0 3.0 0.00 0.00 0.00 69 1013.0
20260503180853 63 212 4.0 8.0 0.00 0.00 0.00 68 1012.6
20260503180351 63 220 2.0 2.0 0.00 0.00 0.00 67 1013.0
20260503175847 63 215 2.0 7.0 0.00 0.00 0.00 67 1012.6
20260503175346 63 239 2.0 6.0 0.00 0.00 0.00 68 1012.6
20260503174841 63 218 5.0 7.0 0.00 0.00 0.00 66 1012.6
20260503174339 63 212 4.0 7.0 0.00 0.00 0.00 67 1013.0
20260503173834 63 213 2.0 3.0 0.00 0.00 0.00 66 1012.6
20260503173331 63 198 4.0 7.0 0.00 0.00 0.00 66 1012.6
20260503172827 63 175 2.0 3.0 0.00 0.00 0.00 67 1012.6
20260503172325 64 225 1.0 5.0 0.00 0.00 0.00 66 1012.6
20260503171821 63 235 3.0 5.0 0.00 0.00 0.00 67 1012.3
20260503171318 63 202 0.0 2.0 0.00 0.00 0.00 67 1012.6
20260503170815 63 205 1.0 3.0 0.00 0.00 0.00 68 1012.3
20260503170312 63 218 2.0 3.0 0.00 0.00 0.00 68 1011.9
20260503150704 60 173 2.0 3.0 0.00 0.00 0.00 79 1011.6
20260503150200 60 135 1.0 3.0 0.00 0.00 0.00 79 1011.6
20260503140125 59 91 3.0 3.0 0.00 0.00 0.00 83 1011.2
20260503131054 59 175 1.0 2.0 0.00 0.00 0.00 80 1011.2
20260503130551 59 173 1.0 2.0 0.00 0.00 0.00 80 1010.9
20260503110442 59 264 2.0 3.0 0.00 0.00 0.00 86 1010.6
20260503090333 59 187 2.0 5.0 0.00 0.00 0.00 87 1010.9
20260503081300 60 191 3.0 5.0 0.00 0.00 0.00 84 1010.9
20260503080756 60 186 0.0 2.0 0.00 0.00 0.00 84 1011.2
20260503080254 60 188 1.0 3.0 0.00 0.00 0.00 85 1011.2
20260503072730 60 170 4.0 6.0 0.00 0.00 0.00 85 1010.9
20260503072227 60 187 1.0 2.0 0.00 0.00 0.00 85 1011.2
20260503071723 60 162 4.0 5.0 0.00 0.00 0.00 85 1010.9
20260503071220 60 176 2.0 6.0 0.00 0.00 0.00 85 1010.9
20260503070717 60 170 4.0 6.0 0.00 0.00 0.00 85 1011.2
20260503070215 60 200 1.0 2.0 0.00 0.00 0.00 85 1010.9
20260503060139 60 197 1.0 2.0 0.00 0.00 0.00 85 1010.9
20260503054626 60 217 3.0 3.0 0.00 0.00 0.00 85 1010.6
20260503054124 60 197 3.0 3.0 0.00 0.00 0.00 84 1010.6
20260503053622 60 206 2.0 2.0 0.00 0.00 0.00 84 1010.9
20260503053120 60 217 1.0 2.0 0.00 0.00 0.00 84 1010.6
20260503052616 60 234 2.0 2.0 0.00 0.00 0.00 84 1010.9
20260503052112 61 230 1.0 2.0 0.00 0.00 0.00 83 1010.6
20260503051608 61 229 1.0 2.0 0.00 0.00 0.00 83 1010.9
20260503051106 61 225 1.0 2.0 0.00 0.00 0.00 82 1010.6
20260503050602 61 214 1.0 2.0 0.00 0.00 0.00 82 1010.6
20260503050059 61 227 4.0 5.0 0.00 0.00 0.00 81 1010.6
20260503045556 61 197 1.0 2.0 0.00 0.00 0.00 81 1010.6
20260503045053 61 204 2.0 2.0 0.00 0.00 0.00 81 1010.6
20260503044550 61 192 0.0 1.0 0.00 0.00 0.00 81 1010.6
20260503044048 61 177 2.0 3.0 0.00 0.00 0.00 80 1010.6
20260503043543 61 209 2.0 3.0 0.00 0.00 0.00 80 1010.6
20260503043040 61 202 3.0 5.0 0.00 0.00 0.00 80 1010.6
20260503042537 61 179 1.0 2.0 0.00 0.00 0.00 80 1010.6
20260503042033 61 202 1.0 3.0 0.00 0.00 0.00 80 1010.6
20260503041530 62 184 1.0 2.0 0.00 0.00 0.00 80 1010.2
20260503041028 62 203 3.0 3.0 0.00 0.00 0.00 80 1010.2
20260503040525 62 218 1.0 3.0 0.00 0.00 0.00 80 1009.9
20260503040022 62 209 1.0 3.0 0.00 0.00 0.00 79 1010.2
20260503035519 62 173 3.0 8.0 0.00 0.00 0.00 79 1009.9
20260503035017 62 181 3.0 3.0 0.00 0.00 0.00 79 1009.9
20260503034514 62 176 3.0 6.0 0.00 0.00 0.00 79 1009.9
20260503034011 62 183 2.0 3.0 0.00 0.00 0.00 78 1009.5
20260503033508 62 187 4.0 6.0 0.00 0.00 0.00 79 1009.5
20260503033006 62 188 2.0 5.0 0.00 0.00 0.00 78 1009.5
20260503032504 62 219 4.0 5.0 0.00 0.00 0.00 78 1009.5
20260503032002 62 215 2.0 7.0 0.00 0.00 0.00 78 1009.2
20260503031500 62 226 4.0 6.0 0.00 0.00 0.00 77 1009.2
20260503030956 63 206 3.0 6.0 0.00 0.00 0.00 77 1009.2
20260503030452 63 201 3.0 5.0 0.00 0.00 0.00 76 1009.2
20260503025949 63 215 1.0 5.0 0.00 0.00 0.00 76 1009.2
20260503025446 63 213 2.0 6.0 0.00 0.00 0.00 75 1009.2
20260503024943 64 211 2.0 5.0 0.00 0.00 0.00 74 1008.9
20260503024440 64 217 3.0 6.0 0.00 0.00 0.00 73 1008.9
20260503023937 64 186 2.0 6.0 0.00 0.00 0.00 73 1008.9
20260503023434 64 242 5.0 6.0 0.00 0.00 0.00 72 1008.9
20260503022931 65 221 4.0 7.0 0.00 0.00 0.00 71 1008.9
20260503022426 65 174 1.0 10.0 0.00 0.00 0.00 70 1008.5
20260503021922 65 191 3.0 5.0 0.00 0.00 0.00 70 1008.5
20260503021418 66 181 6.0 7.0 0.00 0.00 0.00 69 1008.5
20260503020916 66 163 5.0 7.0 0.00 0.00 0.00 69 1008.5
20260503020414 66 197 4.0 6.0 0.00 0.00 0.00 69 1008.5
20260503015909 66 234 5.0 7.0 0.00 0.00 0.00 69 1008.5
20260503015407 67 200 5.0 8.0 0.00 0.00 0.00 68 1008.5
20260503014902 67 233 8.0 9.0 0.00 0.00 0.00 68 1008.5
20260503014400 67 207 3.0 6.0 0.00 0.00 0.00 67 1008.5
20260503013858 68 215 2.0 5.0 0.00 0.00 0.00 66 1008.2
20260503013354 68 198 2.0 5.0 0.00 0.00 0.00 66 1008.2
20260503012852 68 214 4.0 8.0 0.00 0.00 0.00 65 1008.2
20260503012349 68 218 6.0 7.0 0.00 0.00 0.00 65 1008.2
20260503011846 69 203 3.0 7.0 0.00 0.00 0.00 64 1008.5
20260503011342 69 208 2.0 8.0 0.00 0.00 0.00 65 1008.2
20260503010838 70 210 2.0 6.0 0.00 0.00 0.00 64 1008.2
20260503010331 70 210 5.0 7.0 0.00 0.00 0.00 63 1008.2
20260503005827 70 206 3.0 5.0 0.00 0.00 0.00 62 1008.2
20260503005325 70 203 3.0 7.0 0.00 0.00 0.00 62 1008.2
20260503004821 70 219 3.0 5.0 0.00 0.00 0.00 63 1008.2
20260503004319 70 232 5.0 6.0 0.00 0.00 0.00 63 1008.2
20260503003816 70 202 2.0 5.0 0.00 0.00 0.00 63 1008.2
20260503003313 70 202 4.0 7.0 0.00 0.00 0.00 63 1008.2
20260503002810 70 212 6.0 8.0 0.00 0.00 0.00 63 1008.2
20260503002307 72 205 4.0 7.0 0.00 0.00 0.00 60 1008.5
20260503001803 71 217 3.0 8.0 0.00 0.00 0.00 62 1008.5
20260503001259 71 244 3.0 7.0 0.00 0.00 0.00 61 1008.2
20260503000757 71 162 3.0 8.0 0.00 0.00 0.00 61 1008.9
20260503000253 71 220 5.0 8.0 0.00 0.00 0.00 62 1008.5
20260502235750 71 229 2.0 6.0 0.00 0.00 0.00 61 1008.2
20260502235243 72 222 3.0 8.0 0.00 0.00 0.00 61 1008.5
20260502234739 72 245 3.0 5.0 0.00 0.00 0.00 61 1008.5
20260502234237 71 270 4.0 6.0 0.00 0.00 0.00 62 1008.5
20260502233732 72 210 3.0 7.0 0.00 0.00 0.00 62 1008.2
20260502233229 71 212 3.0 7.0 0.00 0.00 0.00 62 1008.5
20260502232725 72 256 7.0 8.0 0.00 0.00 0.00 60 1008.5
20260502232222 71 251 2.0 6.0 0.00 0.00 0.00 62 1008.5
20260502231719 72 245 6.0 7.0 0.00 0.00 0.00 62 1008.5
20260502231217 70 220 2.0 8.0 0.00 0.00 0.00 65 1008.9
20260502230716 71 279 5.0 8.0 0.00 0.00 0.00 64 1008.9
20260502230213 72 219 4.0 7.0 0.00 0.00 0.00 62 1008.5
20260502225709 71 253 1.0 6.0 0.00 0.00 0.00 62 1008.9
20260502225206 71 222 2.0 8.0 0.00 0.00 0.00 63 1008.9
20260502224702 72 156 6.0 9.0 0.00 0.00 0.00 63 1008.9
20260502224159 71 195 4.0 8.0 0.00 0.00 0.00 62 1009.2
20260502223656 71 214 6.0 8.0 0.00 0.00 0.00 61 1008.9
20260502223155 73 216 4.0 7.0 0.00 0.00 0.00 60 1009.2
20260502222652 72 191 2.0 6.0 0.00 0.00 0.00 61 1009.5
20260502222149 72 215 8.0 11.0 0.00 0.00 0.00 61 1009.5
20260502221644 71 230 4.0 7.0 0.00 0.00 0.00 63 1009.5
20260502221142 72 192 5.0 9.0 0.00 0.00 0.00 61 1009.5
20260502220637 72 225 5.0 9.0 0.00 0.00 0.00 62 1009.9
20260502220133 72 237 3.0 7.0 0.00 0.00 0.00 63 1009.5
20260502215631 72 310 6.0 9.0 0.00 0.00 0.00 63 1009.9
20260502215122 73 245 5.0 8.0 0.00 0.00 0.00 61 1009.9
20260502214619 73 246 3.0 6.0 0.00 0.00 0.00 61 1009.9
20260502214116 73 229 3.0 8.0 0.00 0.00 0.00 62 1009.9
20260502213614 73 227 4.0 8.0 0.00 0.00 0.00 60 1009.9
20260502213111 72 206 6.0 7.0 0.00 0.00 0.00 61 1010.2
20260502212610 72 236 6.0 9.0 0.00 0.00 0.00 63 1010.2
20260502212108 73 262 6.0 7.0 0.00 0.00 0.00 61 1010.2
20260502211603 71 247 8.0 9.0 0.00 0.00 0.00 64 1010.2
20260502211100 72 222 7.0 9.0 0.00 0.00 0.00 62 1010.2
20260502210557 72 223 3.0 8.0 0.00 0.00 0.00 63 1010.2
20260502210054 71 175 5.0 7.0 0.00 0.00 0.00 63 1010.2
20260502205550 71 263 5.0 7.0 0.00 0.00 0.00 64 1010.2
20260502205048 71 279 5.0 8.0 0.00 0.00 0.00 65 1010.6
20260502204544 72 254 5.0 7.0 0.00 0.00 0.00 64 1010.2
20260502204042 70 290 4.0 7.0 0.00 0.00 0.00 66 1010.6
20260502203539 71 267 5.0 8.0 0.00 0.00 0.00 66 1010.6
20260502203036 70 216 3.0 8.0 0.00 0.00 0.00 66 1010.6
20260502202532 71 230 4.0 9.0 0.00 0.00 0.00 67 1010.6
20260502202031 71 280 4.0 7.0 0.00 0.00 0.00 67 1010.6
20260502201526 70 260 3.0 7.0 0.00 0.00 0.00 67 1010.9
20260502201022 72 256 5.0 6.0 0.00 0.00 0.00 64 1010.6
20260502200518 71 246 4.0 8.0 0.00 0.00 0.00 65 1010.9
20260502200016 70 275 5.0 6.0 0.00 0.00 0.00 67 1010.6
20260502195513 71 179 0.0 5.0 0.00 0.00 0.00 65 1010.9
20260502195004 70 176 5.0 6.0 0.00 0.00 0.00 67 1010.9
20260502194501 70 186 5.0 7.0 0.00 0.00 0.00 66 1011.2
20260502193956 70 174 2.0 3.0 0.00 0.00 0.00 67 1011.2
20260502193455 71 199 2.0 8.0 0.00 0.00 0.00 66 1011.2
20260502192950 68 224 1.0 5.0 0.00 0.00 0.00 70 1011.6